Location: Unspecified
(43.4354°N, 0.0000°E)
Time: 10:03:36
(UTC+00:00)

Courier 1B - Pass Details

Date: 21 June 2019
Orbit: 962 x 1209 km, 28.3° (Epoch: 17 October)

Event Time Altitude Azimuth Distance (km) Brightness Sun altitude
Rises 00:01:25 0° 254° (WSW) 4,078 10.6 -23.1°
Enters shadow 00:03:34 - 244° (WSW) 3,584 10.2 -23.1°
Reaches altitude 10° 00:06:08 10° 229° (SW) 3,134 - -23.1°
Maximum altitude 00:09:27 13° 204° (SSW) 2,900 - -23.1°
Drops below altitude 10° 00:12:46 10° 178° (S) 3,135 - -23.1°
Sets 00:17:31 0° 153° (SSE) 4,081 - -23.0°
